UAL1513 KSFO-KEUG

Flight info

Callsign UAL1513
Flight time 1h 4m
Altitude 38000
Route TRUKN2 GRTFL EUG
Aircraft B738/M-SDE2E3FGHIRWXY/LB1

Departure

Time 2026-04-19 23:37
Airport San Francisco International Airport (KSFO)

Arrival

Time 2026-04-20 00:41
Airport Eugene Airport (KEUG)
Time Latitude Longitude Altitude Speed Heading
2026-04-19 23:05 37.61551 -122.38271 32 ft 0 kts 225°
2026-04-19 23:26 37.61552 -122.38271 32 ft 0 kts 225°
2026-04-19 23:27 37.61562 -122.38258 32 ft 2 kts 225°
2026-04-19 23:27 37.61569 -122.38248 32 ft 2 kts 214°
2026-04-19 23:27 37.61586 -122.38242 32 ft 2 kts 176°
2026-04-19 23:27 37.61602 -122.38248 32 ft 2 kts 144°
2026-04-19 23:28 37.61610 -122.38260 32 ft 0 kts 120°
2026-04-19 23:28 37.61613 -122.38268 32 ft 0 kts 117°
2026-04-19 23:28 37.61614 -122.38268 32 ft 0 kts 117°
2026-04-19 23:30 37.61606 -122.38250 32 ft 8 kts 117°
2026-04-19 23:31 37.61568 -122.38155 32 ft 13 kts 118°
2026-04-19 23:31 37.61544 -122.38068 32 ft 9 kts 82°
2026-04-19 23:31 37.61583 -122.38018 32 ft 8 kts 32°
2026-04-19 23:31 37.61629 -122.37982 32 ft 8 kts 32°
2026-04-19 23:32 37.61678 -122.37945 31 ft 10 kts 31°
2026-04-19 23:32 37.61740 -122.37895 30 ft 12 kts 39°
2026-04-19 23:32 37.61797 -122.37807 28 ft 15 kts 76°
2026-04-19 23:32 37.61768 -122.37671 26 ft 18 kts 114°
2026-04-19 23:33 37.61711 -122.37502 20 ft 22 kts 114°
2026-04-19 23:33 37.61640 -122.37325 16 ft 23 kts 119°
2026-04-19 23:33 37.61560 -122.37133 13 ft 26 kts 117°
2026-04-19 23:33 37.61467 -122.36925 13 ft 26 kts 126°
2026-04-19 23:34 37.61354 -122.36752 13 ft 25 kts 119°
2026-04-19 23:34 37.61274 -122.36565 13 ft 24 kts 118°
2026-04-19 23:34 37.61195 -122.36376 10 ft 24 kts 116°
2026-04-19 23:34 37.61122 -122.36195 9 ft 13 kts 117°
2026-04-19 23:35 37.61121 -122.36103 9 ft 10 kts 56°
2026-04-19 23:35 37.61176 -122.36051 9 ft 10 kts 33°
2026-04-19 23:35 37.61235 -122.36015 9 ft 8 kts 358°
2026-04-19 23:35 37.61269 -122.36063 9 ft 4 kts 297°
2026-04-19 23:36 37.61272 -122.36073 9 ft 6 kts 296°
2026-04-19 23:36 37.61351 -122.36267 11 ft 60 kts 297°
2026-04-19 23:36 37.61658 -122.36996 13 ft 138 kts 298°
2026-04-19 23:36 37.62145 -122.38134 223 ft 180 kts 298°
2026-04-19 23:37 37.62678 -122.39349 1088 ft 185 kts 296°
2026-04-19 23:37 37.63284 -122.40432 1961 ft 177 kts 317°
2026-04-19 23:37 37.64347 -122.41010 2277 ft 204 kts 351°
2026-04-19 23:37 37.65713 -122.40878 2631 ft 231 kts 17°
2026-04-19 23:38 37.67041 -122.40007 2999 ft 254 kts 40°
2026-04-19 23:38 37.68116 -122.38412 2988 ft 263 kts 66°
2026-04-19 23:38 37.68633 -122.36429 2980 ft 252 kts 81°
2026-04-19 23:38 37.68945 -122.34423 2979 ft 246 kts 81°
2026-04-19 23:39 37.69292 -122.32476 2954 ft 249 kts 81°
2026-04-19 23:39 37.69653 -122.30483 2983 ft 249 kts 79°
2026-04-19 23:39 37.70034 -122.28541 2989 ft 245 kts 78°
2026-04-19 23:39 37.70464 -122.26451 3002 ft 249 kts 78°
2026-04-19 23:40 37.70912 -122.24353 2933 ft 253 kts 76°
2026-04-19 23:40 37.71709 -122.22520 2911 ft 258 kts 45°
2026-04-19 23:40 37.73221 -122.21472 3354 ft 282 kts 14°
2026-04-19 23:40 37.74972 -122.21252 4326 ft 284 kts 359°
2026-04-19 23:41 37.76775 -122.21437 5208 ft 289 kts 356°
2026-04-19 23:41 37.78524 -122.21602 6040 ft 294 kts 358°
2026-04-19 23:41 37.80408 -122.21703 6872 ft 301 kts 360°
2026-04-19 23:41 37.82367 -122.21764 7766 ft 305 kts 360°
2026-04-19 23:42 37.84331 -122.21808 8602 ft 311 kts 359°
2026-04-19 23:42 37.86407 -122.21854 9458 ft 316 kts 359°
2026-04-19 23:42 37.88492 -122.21904 10287 ft 321 kts 358°
2026-04-19 23:42 37.90734 -122.21961 10852 ft 338 kts 358°
2026-04-19 23:43 37.93124 -122.22025 11414 ft 354 kts 358°
2026-04-19 23:43 37.95631 -122.22092 11941 ft 370 kts 358°
2026-04-19 23:43 37.98271 -122.22163 12429 ft 388 kts 358°
2026-04-19 23:43 38.01056 -122.22238 12920 ft 404 kts 358°
2026-04-19 23:44 38.03942 -122.22316 13518 ft 417 kts 358°
2026-04-19 23:44 38.06960 -122.22395 14423 ft 421 kts 358°
2026-04-19 23:44 38.10081 -122.22477 15367 ft 424 kts 358°
2026-04-19 23:44 38.13322 -122.22562 16183 ft 431 kts 357°
2026-04-19 23:45 38.16481 -122.22645 17037 ft 434 kts 357°
2026-04-19 23:45 38.19696 -122.22729 17800 ft 440 kts 357°
2026-04-19 23:45 38.22845 -122.22814 18566 ft 444 kts 357°
2026-04-19 23:45 38.26035 -122.22901 19294 ft 449 kts 356°
2026-04-19 23:46 38.29178 -122.22987 19962 ft 454 kts 356°
2026-04-19 23:46 38.32365 -122.23071 20653 ft 457 kts 356°
2026-04-19 23:46 38.35560 -122.23199 21341 ft 460 kts 354°
2026-04-19 23:46 38.38746 -122.23515 21912 ft 465 kts 351°
2026-04-19 23:47 38.41972 -122.23978 22522 ft 468 kts 349°
2026-04-19 23:47 38.45220 -122.24519 23152 ft 471 kts 349°
2026-04-19 23:47 38.48401 -122.25068 23670 ft 476 kts 349°
2026-04-19 23:47 38.51757 -122.25648 24339 ft 478 kts 349°
2026-04-19 23:48 38.55110 -122.26217 24915 ft 482 kts 349°
2026-04-19 23:48 38.58438 -122.26771 25468 ft 485 kts 349°
2026-04-19 23:48 38.61863 -122.27331 26003 ft 489 kts 349°
2026-04-19 23:48 38.65263 -122.27881 26557 ft 492 kts 349°
2026-04-19 23:49 38.68682 -122.28431 27077 ft 496 kts 349°
2026-04-19 23:49 38.72091 -122.28976 27552 ft 500 kts 349°
2026-04-19 23:49 38.75616 -122.29538 28049 ft 503 kts 349°
2026-04-19 23:49 38.79063 -122.30087 28618 ft 504 kts 349°
2026-04-19 23:50 38.82540 -122.30638 29427 ft 499 kts 349°
2026-04-19 23:50 38.85956 -122.31179 30121 ft 496 kts 349°
2026-04-19 23:50 38.89547 -122.31749 30783 ft 495 kts 349°
2026-04-19 23:50 38.93185 -122.32330 31421 ft 494 kts 348°
2026-04-19 23:51 38.96757 -122.32901 32122 ft 491 kts 348°
2026-04-19 23:51 39.00335 -122.33472 32835 ft 488 kts 348°
2026-04-19 23:51 39.03866 -122.34037 33541 ft 484 kts 348°
2026-04-19 23:51 39.07389 -122.34602 34180 ft 482 kts 348°
2026-04-19 23:52 39.10949 -122.35174 34673 ft 481 kts 348°
2026-04-19 23:52 39.14424 -122.35733 35076 ft 481 kts 348°
2026-04-19 23:52 39.17945 -122.36303 35355 ft 484 kts 347°
2026-04-19 23:52 39.21422 -122.36869 35707 ft 484 kts 348°
2026-04-19 23:53 39.24932 -122.37433 36260 ft 479 kts 348°
2026-04-19 23:53 39.28433 -122.37994 36665 ft 480 kts 347°
2026-04-19 23:53 39.31941 -122.38562 37113 ft 480 kts 347°
2026-04-19 23:53 39.35475 -122.39146 37609 ft 479 kts 347°
2026-04-19 23:54 39.38998 -122.39734 37878 ft 481 kts 347°
2026-04-19 23:54 39.42539 -122.40327 37863 ft 483 kts 347°
2026-04-19 23:54 39.49620 -122.41501 37864 ft 478 kts 347°
2026-04-19 23:55 39.56654 -122.42660 37865 ft 478 kts 348°
2026-04-19 23:55 39.63653 -122.43806 37866 ft 482 kts 348°
2026-04-19 23:56 39.70689 -122.44955 37869 ft 483 kts 348°
2026-04-19 23:56 39.77718 -122.46098 37859 ft 482 kts 348°
2026-04-19 23:57 39.84810 -122.47263 37856 ft 483 kts 348°
2026-04-19 23:57 39.91887 -122.48427 37855 ft 483 kts 348°
2026-04-19 23:58 39.98966 -122.49598 37847 ft 485 kts 348°
2026-04-19 23:58 40.06100 -122.50778 37851 ft 483 kts 348°
2026-04-19 23:59 40.13102 -122.51936 37862 ft 485 kts 348°
2026-04-19 23:59 40.20111 -122.53102 37862 ft 484 kts 348°
2026-04-20 00:00 40.27208 -122.54281 37862 ft 485 kts 348°
2026-04-20 00:00 40.34320 -122.55466 37872 ft 485 kts 348°
2026-04-20 00:01 40.41398 -122.56645 37881 ft 489 kts 348°
2026-04-20 00:02 40.51906 -122.58395 37889 ft 486 kts 348°
2026-04-20 00:02 40.58937 -122.59569 37898 ft 486 kts 348°
2026-04-20 00:03 40.66005 -122.60760 37911 ft 491 kts 348°
2026-04-20 00:03 40.72832 -122.61909 37920 ft 488 kts 348°
2026-04-20 00:04 40.79626 -122.63059 37925 ft 489 kts 348°
2026-04-20 00:04 40.86163 -122.64168 37931 ft 492 kts 349°
2026-04-20 00:05 40.93003 -122.65318 37938 ft 491 kts 348°
2026-04-20 00:05 40.99947 -122.66481 37939 ft 493 kts 348°
2026-04-20 00:06 41.06974 -122.67677 37951 ft 492 kts 348°
2026-04-20 00:06 41.13984 -122.68874 37944 ft 492 kts 348°
2026-04-20 00:07 41.21131 -122.70098 37923 ft 491 kts 348°
2026-04-20 00:07 41.28279 -122.71326 37920 ft 493 kts 349°
2026-04-20 00:08 41.35456 -122.72559 37918 ft 492 kts 348°
2026-04-20 00:08 41.42503 -122.73772 37924 ft 492 kts 348°
2026-04-20 00:09 41.49541 -122.74989 37918 ft 494 kts 348°
2026-04-20 00:09 41.56609 -122.76205 37915 ft 493 kts 348°
2026-04-20 00:10 41.63691 -122.77437 37911 ft 494 kts 349°
2026-04-20 00:10 41.70725 -122.78665 37906 ft 494 kts 348°
2026-04-20 00:11 41.77786 -122.79892 37903 ft 492 kts 349°
2026-04-20 00:11 41.84788 -122.81111 37905 ft 495 kts 348°
2026-04-20 00:12 41.91929 -122.82358 37913 ft 492 kts 349°
2026-04-20 00:12 41.98830 -122.83565 37917 ft 495 kts 349°
2026-04-20 00:13 42.05955 -122.84818 37920 ft 496 kts 349°
2026-04-20 00:13 42.13087 -122.86070 37904 ft 494 kts 349°
2026-04-20 00:14 42.19896 -122.87271 37886 ft 495 kts 349°
2026-04-20 00:14 42.26775 -122.88473 37868 ft 496 kts 349°
2026-04-20 00:15 42.33733 -122.89705 37843 ft 494 kts 349°
2026-04-20 00:15 42.37195 -122.90321 37629 ft 487 kts 349°
2026-04-20 00:15 42.40726 -122.90948 37188 ft 480 kts 349°
2026-04-20 00:15 42.44016 -122.91533 36639 ft 476 kts 349°
2026-04-20 00:16 42.47361 -122.92128 36021 ft 476 kts 349°
2026-04-20 00:16 42.50785 -122.92736 35718 ft 471 kts 349°
2026-04-20 00:16 42.54081 -122.93322 35648 ft 470 kts 349°
2026-04-20 00:16 42.57428 -122.93923 35416 ft 484 kts 349°
2026-04-20 00:17 42.60726 -122.94519 35183 ft 495 kts 349°
2026-04-20 00:17 42.64063 -122.95118 34949 ft 500 kts 350°
2026-04-20 00:17 42.67511 -122.95731 34561 ft 497 kts 350°
2026-04-20 00:17 42.70981 -122.96351 33871 ft 496 kts 350°
2026-04-20 00:18 42.74342 -122.96951 32924 ft 493 kts 350°
2026-04-20 00:18 42.77547 -122.97527 31573 ft 501 kts 351°
2026-04-20 00:18 42.80847 -122.98125 30867 ft 499 kts 351°
2026-04-20 00:18 42.84215 -122.98733 30153 ft 498 kts 351°
2026-04-20 00:19 42.87531 -122.99330 29170 ft 503 kts 351°
2026-04-20 00:19 42.90765 -122.99914 28544 ft 500 kts 351°
2026-04-20 00:19 42.94146 -123.00523 27943 ft 496 kts 351°
2026-04-20 00:19 42.97508 -123.01127 27522 ft 487 kts 351°
2026-04-20 00:20 43.00670 -123.01696 26922 ft 480 kts 351°
2026-04-20 00:20 43.03740 -123.02250 26095 ft 475 kts 351°
2026-04-20 00:20 43.06778 -123.02802 25295 ft 469 kts 351°
2026-04-20 00:20 43.09732 -123.03339 24479 ft 463 kts 352°
2026-04-20 00:21 43.12682 -123.03873 23853 ft 456 kts 351°
2026-04-20 00:21 43.15578 -123.04398 23226 ft 454 kts 352°
2026-04-20 00:21 43.18534 -123.04934 22606 ft 451 kts 352°
2026-04-20 00:21 43.21514 -123.05475 22010 ft 448 kts 352°
2026-04-20 00:22 43.24388 -123.05999 21488 ft 443 kts 352°
2026-04-20 00:22 43.27212 -123.06515 20693 ft 437 kts 352°
2026-04-20 00:22 43.29969 -123.07018 19836 ft 434 kts 352°
2026-04-20 00:22 43.32776 -123.07530 19298 ft 429 kts 352°
2026-04-20 00:23 43.35493 -123.08028 18733 ft 427 kts 352°
2026-04-20 00:23 43.38172 -123.08521 18128 ft 422 kts 352°
2026-04-20 00:23 43.40862 -123.09016 17575 ft 412 kts 352°
2026-04-20 00:23 43.43503 -123.09504 16996 ft 403 kts 352°
2026-04-20 00:24 43.46063 -123.09977 16252 ft 407 kts 352°
2026-04-20 00:24 43.48603 -123.10446 15458 ft 412 kts 352°
2026-04-20 00:24 43.51158 -123.10918 15049 ft 406 kts 352°
2026-04-20 00:24 43.53667 -123.11380 14526 ft 404 kts 353°
2026-04-20 00:25 43.56221 -123.11849 13948 ft 402 kts 353°
2026-04-20 00:25 43.58794 -123.12325 13403 ft 400 kts 353°
2026-04-20 00:25 43.61320 -123.12796 13010 ft 389 kts 353°
2026-04-20 00:25 43.63765 -123.13251 12344 ft 383 kts 353°
2026-04-20 00:26 43.66248 -123.13711 11682 ft 376 kts 354°
2026-04-20 00:26 43.68572 -123.14141 10995 ft 370 kts 354°
2026-04-20 00:26 43.70890 -123.14571 10553 ft 361 kts 355°
2026-04-20 00:26 43.73072 -123.14977 10428 ft 341 kts 355°
2026-04-20 00:27 43.75154 -123.15369 10331 ft 321 kts 355°
2026-04-20 00:27 43.77108 -123.15734 10237 ft 308 kts 355°
2026-04-20 00:27 43.79046 -123.16095 10027 ft 302 kts 355°
2026-04-20 00:27 43.80926 -123.16441 9696 ft 301 kts 356°
2026-04-20 00:28 43.82820 -123.16789 9334 ft 300 kts 355°
2026-04-20 00:28 43.84690 -123.17135 8952 ft 301 kts 355°
2026-04-20 00:28 43.86562 -123.17484 8610 ft 296 kts 355°
2026-04-20 00:28 43.88382 -123.17825 8289 ft 287 kts 355°
2026-04-20 00:29 43.90117 -123.18151 8014 ft 280 kts 355°
2026-04-20 00:29 43.91884 -123.18481 7666 ft 279 kts 355°
2026-04-20 00:29 43.93605 -123.18801 7354 ft 277 kts 355°
2026-04-20 00:29 43.95347 -123.19127 7039 ft 275 kts 354°
2026-04-20 00:30 43.97046 -123.19447 6717 ft 273 kts 354°
2026-04-20 00:30 43.98806 -123.19780 6445 ft 267 kts 354°
2026-04-20 00:30 44.00498 -123.20096 6161 ft 263 kts 354°
2026-04-20 00:30 44.02244 -123.20422 5867 ft 259 kts 354°
2026-04-20 00:31 44.03988 -123.20752 5598 ft 254 kts 354°
2026-04-20 00:31 44.05735 -123.21079 5377 ft 248 kts 354°
2026-04-20 00:31 44.07482 -123.21407 5117 ft 243 kts 353°
2026-04-20 00:31 44.09160 -123.21724 4909 ft 237 kts 353°
2026-04-20 00:32 44.10794 -123.22029 4711 ft 231 kts 353°
2026-04-20 00:32 44.12403 -123.22263 4504 ft 225 kts 358°
2026-04-20 00:32 44.13980 -123.22273 4268 ft 222 kts
2026-04-20 00:32 44.15542 -123.22212 4029 ft 218 kts
2026-04-20 00:33 44.17059 -123.22153 3752 ft 212 kts
2026-04-20 00:33 44.18507 -123.22109 3542 ft 201 kts
2026-04-20 00:33 44.19900 -123.22066 3376 ft 189 kts
2026-04-20 00:33 44.21240 -123.22015 3062 ft 184 kts
2026-04-20 00:34 44.22558 -123.21957 2660 ft 185 kts
2026-04-20 00:34 44.23817 -123.21896 2458 ft 176 kts
2026-04-20 00:34 44.24931 -123.21835 2458 ft 155 kts
2026-04-20 00:34 44.25970 -123.21773 2483 ft 158 kts
2026-04-20 00:35 44.27073 -123.21706 2475 ft 163 kts
2026-04-20 00:35 44.28185 -123.21434 2456 ft 168 kts 25°
2026-04-20 00:35 44.29067 -123.20386 2492 ft 171 kts 44°
2026-04-20 00:35 44.29903 -123.19190 2457 ft 168 kts 34°
2026-04-20 00:36 44.30964 -123.18702 2453 ft 161 kts 353°
2026-04-20 00:36 44.31913 -123.19312 2151 ft 156 kts 311°
2026-04-20 00:36 44.32223 -123.20642 1915 ft 151 kts 263°
2026-04-20 00:36 44.31714 -123.21857 1976 ft 159 kts 225°
2026-04-20 00:37 44.30806 -123.22731 1964 ft 173 kts 202°
2026-04-20 00:37 44.29670 -123.22768 1969 ft 172 kts 164°
2026-04-20 00:37 44.28498 -123.22324 1973 ft 175 kts 174°
2026-04-20 00:37 44.27292 -123.22201 1975 ft 172 kts 180°
2026-04-20 00:38 44.26072 -123.22142 1980 ft 172 kts 180°
2026-04-20 00:38 44.24885 -123.22102 1980 ft 172 kts 181°
2026-04-20 00:38 44.23754 -123.22076 1981 ft 165 kts 181°
2026-04-20 00:38 44.22631 -123.22056 1961 ft 161 kts 181°
2026-04-20 00:39 44.21503 -123.22037 1948 ft 164 kts 181°
2026-04-20 00:39 44.20332 -123.22018 1689 ft 165 kts 181°
2026-04-20 00:39 44.19183 -123.21999 1454 ft 157 kts 181°
2026-04-20 00:39 44.18092 -123.21986 1249 ft 156 kts 181°
2026-04-20 00:40 44.17020 -123.21965 1058 ft 156 kts 180°
2026-04-20 00:40 44.15950 -123.21932 856 ft 155 kts 181°
2026-04-20 00:40 44.14888 -123.21919 644 ft 157 kts 180°
2026-04-20 00:40 44.13830 -123.21915 450 ft 156 kts 180°
2026-04-20 00:41 44.12804 -123.21903 364 ft 138 kts 180°
2026-04-20 00:41 44.12120 -123.21899 370 ft 65 kts 180°
2026-04-20 00:41 44.11888 -123.21894 370 ft 18 kts 179°
2026-04-20 00:41 44.11718 -123.21892 370 ft 28 kts 180°
2026-04-20 00:42 44.11538 -123.21892 370 ft 27 kts 180°
2026-04-20 00:42 44.11395 -123.21883 370 ft 15 kts 163°
2026-04-20 00:42 44.11356 -123.21780 371 ft 13 kts 95°
2026-04-20 00:42 44.11376 -123.21705 372 ft 7 kts 30°
2026-04-20 00:43 44.11438 -123.21695 373 ft 12 kts 359°
2026-04-20 00:43 44.11548 -123.21699 373 ft 21 kts 359°
2026-04-20 00:43 44.11696 -123.21702 372 ft 18 kts 360°
2026-04-20 00:43 44.11757 -123.21681 373 ft 7 kts 30°
2026-04-20 00:44 44.11799 -123.21648 373 ft 6 kts 30°
2026-04-20 00:44 44.11836 -123.21619 373 ft 6 kts 30°
2026-04-20 00:44 44.11892 -123.21573 372 ft 13 kts 31°
2026-04-20 00:44 44.11943 -123.21481 371 ft 12 kts 76°
2026-04-20 00:45 44.11948 -123.21454 371 ft 3 kts 76°
2026-04-20 00:45 44.11949 -123.21447 371 ft 0 kts 76°